Weather in Bayunovskiye Klyuchi

Russia / Altai Krai     53°20′04″N   84°12′01″E
temp.,
°C
wind,
m/s
gust,
m/s
humid.,
%
clouds,
%
prec.,
mm/h
press.,
hPa
HPBL,
m
26 january, tue
tue2601:00−26ese1398100 0.3 1040122
04:00−25ese1298100 0.2 103967
07:00−24e1298100 0.3 103829
10:00−23e129897 0.1 103972
13:00−18sse129098 0.1 1039299
16:00−16sw1389100 0.1 1039368
19:00−20s1299100 0.1 103920
22:00−18s2698100 0.1 1039160
27 january, wed
wed2701:00−15ssw41194100 0.1 1037454
04:00−13ssw51393100 0.4 1035778
07:00−11ssw61393100 1.2 1033762
10:00−10sw71593100 1.4 1031670
13:00−8sw71593100 3.2 1030650
16:00−8sw71593100 1.9 1029768
19:00−8sw81691100 3.4 1030818
22:00−7sw81588100 0.4 1030832
28 january, thu
thu2801:00−8sw71590100 0.6 1031657
04:00−8sw61591100 0.1 1032550
07:00−8sw61392100 0.3 1032486
10:00−9sw51393100 0.3 1033476
13:00−7sw61292100 0.7 1032515
16:00−6sw61492100 0.1 1031665
19:00−8sw71591100 0.3 1031628
22:00−8sw71692100 0.1 1029633
29 january, fri
fri2901:00−8sw81891100 0.3 1027686
04:00−7sw81886100 0.0 1024754
07:00−7wsw81786100 0.1 1024847
10:00−6wsw71393100 1.6 1025858
13:00−5wsw71393100 2.4 1027808
16:00−5sw61293100 0.6 1027857
19:00−5wsw61394100 1.4 1028850
22:00−5wsw61393100 0.7 1028791
30 january, sat
sat3001:00−6wsw51293100 0.9 1029623
04:00−6wsw41094100 0.6 1030636
07:00−7wsw4995100 1.3 1031516
10:00−7wsw3895100 0.4 1033471
13:00−6wsw3694100 0.9 1033515
16:00−7sw3594100 0.4 1032423
19:00−10ssw2397100 0.5 103247
22:00−12s2296100 0.0 103132